IZ1CQN-4 Turin IT current weather conditions

sailwx.info

Wind from 158 at 0 knots gusting 2

Air temperature 7.8° C
Dewpoint 2.6° C

Last reported at 2019-Dec-15 15:01 UTC.
Time now 2019-Dec-15 16:12 UTC

Location: N 45°03' E 007°41'.
View on Google Maps.

See reports from other nearby stations

  
Tides and Currents Weather Stations Pressure Air Temp Water Temp Dewpoint Dewpoint Depression Visibility Wind Speed Wind Dir Waves Ship Positions
date/time (UTC)wind fromknots sea level pressurealtimeterstation pressurevisibilityair tempwater tempwave heightnotes
2019-Dec-15 15:01 158 0 gusting 2 7.8
2019-Dec-15 14:56 144 0 gusting 2 7.8
2019-Dec-15 14:51 130 1 gusting 3 7.8
2019-Dec-15 14:46 132 7.8
2019-Dec-15 14:41 154 2 gusting 3 7.8
2019-Dec-15 14:36 153 0 gusting 2 7.8
2019-Dec-15 14:31 132 2 gusting 2 7.8
2019-Dec-15 14:26 133 1 gusting 3 7.8
2019-Dec-15 14:21 145 0 gusting 3 7.8
2019-Dec-15 14:16 165 7.8
2019-Dec-15 14:11 143 0 gusting 2 7.8
2019-Dec-15 14:06 147 1 gusting 2 8.3
2019-Dec-15 14:01 185 1 gusting 2 8.3
2019-Dec-15 13:56 184 0 gusting 2 7.8
2019-Dec-15 13:51 141 7.8
2019-Dec-15 13:46 148 2 gusting 3 7.8
2019-Dec-15 13:41 170 1 gusting 2 7.8
2019-Dec-15 13:36 151 0 gusting 3 8.3
2019-Dec-15 13:31 147 2 gusting 3 8.3
2019-Dec-15 13:26 145 8.3
2019-Dec-15 13:21 140 2 gusting 4 8.3
2019-Dec-15 13:16 155 8.9
2019-Dec-15 13:11 177 0 gusting 2 8.9
2019-Dec-15 13:06 190 8.9
2019-Dec-15 13:01 024 8.9
2019-Dec-15 12:56 038 8.9
2019-Dec-15 12:51 8.9
2019-Dec-15 12:46 001 8.9
2019-Dec-15 12:41 236 8.9
2019-Dec-15 12:36 166 8.9
2019-Dec-15 12:31 116 0 gusting 1 9.4
2019-Dec-15 12:26 070 8.9
2019-Dec-15 12:21 014 0 gusting 1 9.4
2019-Dec-15 12:16 355 9.4
2019-Dec-15 12:11 359 8.9
2019-Dec-15 12:06 311 8.9
2019-Dec-15 12:01 260 8.9
2019-Dec-15 11:56 236 8.9
2019-Dec-15 11:51 046 8.9
2019-Dec-15 11:46 017 8.9
2019-Dec-15 11:41 020 0 gusting 2 8.3
2019-Dec-15 11:36 033 1 gusting 2 8.3
2019-Dec-15 11:31 023 0 gusting 2 8.3
2019-Dec-15 11:26 025 1 gusting 2 8.3
2019-Dec-15 11:21 024 0 gusting 1 8.3
2019-Dec-15 11:16 039 0 gusting 1 8.3
2019-Dec-15 11:11 036 8.3
2019-Dec-15 11:06 006 8.3
2019-Dec-15 11:01 008 8.3
2019-Dec-15 10:56 340 1 gusting 2 8.3
2019-Dec-15 10:51 358 8.3
2019-Dec-15 10:46 026 7.8
2019-Dec-15 10:41 034 0 gusting 2 7.8
2019-Dec-15 10:36 012 0 gusting 2 7.8
2019-Dec-15 10:31 020 7.8
2019-Dec-15 10:26 011 0 gusting 2 7.8
2019-Dec-15 10:21 012 1 gusting 3 7.2
2019-Dec-15 10:16 021 0 gusting 3 7.2
2019-Dec-15 10:11 022 2 gusting 3 7.2
2019-Dec-15 10:06 020 1 gusting 2 7.2
2019-Dec-15 10:01 003 1 gusting 2 7.2
2019-Dec-15 09:56 002 0 gusting 2 6.7
2019-Dec-15 09:51 022 1 gusting 2 6.7
2019-Dec-15 09:46 024 6.7
2019-Dec-15 09:41 015 1 gusting 2 6.7
2019-Dec-15 09:36 011 1 gusting 3 6.7
2019-Dec-15 09:31 014 0 gusting 3 6.1
2019-Dec-15 09:26 027 2 gusting 3 6.1
2019-Dec-15 09:21 034 1 gusting 4 6.1
2019-Dec-15 09:16 019 2 gusting 4 6.1
2019-Dec-15 09:11 022 0 gusting 2 6.1
2019-Dec-15 09:06 025 6.1
2019-Dec-15 09:01 028 6.1
2019-Dec-15 08:56 041 2 gusting 3 6.1
2019-Dec-15 08:51 030 1 gusting 2 6.1
2019-Dec-15 08:46 023 2 gusting 2 5.6
2019-Dec-15 08:41 008 5.6
2019-Dec-15 08:36 010 0 gusting 3 5.6
2019-Dec-15 08:31 034 2 gusting 3 5.6
2019-Dec-15 08:26 031 5.6
2019-Dec-15 08:21 017 1 gusting 3 5.0
2019-Dec-15 08:16 320 5.0
2019-Dec-15 08:11 001 5.0
2019-Dec-15 08:06 033 4.4
2019-Dec-15 08:01 031 2 gusting 4 4.4
2019-Dec-15 07:56 020 2 gusting 3 4.4
2019-Dec-15 07:51 015 2 gusting 3 4.4
2019-Dec-15 07:46 019 1 gusting 3 4.4
2019-Dec-15 07:41 025 0 gusting 3 3.9
2019-Dec-15 07:36 019 2 gusting 3 3.9
2019-Dec-15 07:31 020 0 gusting 3 3.9
2019-Dec-15 07:26 023 2 gusting 3 3.9
2019-Dec-15 07:21 029 2 gusting 5 3.9
2019-Dec-15 07:16 029 2 gusting 5 3.9
2019-Dec-15 07:11 034 2 gusting 4 3.9
2019-Dec-15 07:06 033 1 gusting 2 3.3
2019-Dec-15 07:01 015 1 gusting 2 3.3
2019-Dec-15 06:56 025 3.3
2019-Dec-15 06:51 023 1 gusting 3 3.3
2019-Dec-15 06:46 016 1 gusting 4 3.3
2019-Dec-15 06:41 023 2 gusting 5 3.3
2019-Dec-15 06:36 027 2 gusting 5 3.3
2019-Dec-15 06:31 031 2 gusting 5 3.3
2019-Dec-15 06:26 021 2 gusting 5 3.3
2019-Dec-15 06:21 002 2 gusting 4 3.9
2019-Dec-15 06:16 005 1 gusting 3 3.9
2019-Dec-15 06:11 023 2 gusting 3 3.9
2019-Dec-15 06:06 019 0 gusting 3 3.9
2019-Dec-15 06:01 355 3.9
2019-Dec-15 05:56 007 0 gusting 4 3.9
2019-Dec-15 05:51 014 1 gusting 4 3.9
2019-Dec-15 05:46 357 2 gusting 5 3.9
2019-Dec-15 05:41 339 2 gusting 5 3.9
2019-Dec-15 05:36 342 2 gusting 5 3.3
2019-Dec-15 05:31 356 1 gusting 4 3.9
2019-Dec-15 05:26 342 2 gusting 4 3.9
2019-Dec-15 05:21 349 2 gusting 4 3.9
2019-Dec-15 05:16 004 1 gusting 4 3.3
2019-Dec-15 05:11 001 1 gusting 3 3.3
2019-Dec-15 05:06 007 1 gusting 5 3.9
2019-Dec-15 05:01 006 1 gusting 5 3.9
2019-Dec-15 04:56 006 2 gusting 5 3.9
2019-Dec-15 04:51 025 1 gusting 4 3.9
2019-Dec-15 04:46 039 2 gusting 4 3.9
2019-Dec-15 04:41 023 1 gusting 2 3.9
2019-Dec-15 04:36 011 0 gusting 2 4.4
2019-Dec-15 04:31 349 0 gusting 2 4.4
2019-Dec-15 04:26 350 0 gusting 2 4.4
2019-Dec-15 04:21 008 0 gusting 2 4.4
2019-Dec-15 04:16 030 2 gusting 4 4.4
2019-Dec-15 04:11 042 0 gusting 4 4.4
2019-Dec-15 04:06 021 2 gusting 4 4.4
2019-Dec-15 04:01 032 0 gusting 1 4.4
2019-Dec-15 03:56 042 4.4
2019-Dec-15 03:51 060 4.4
2019-Dec-15 03:46 053 0 gusting 2 4.4
2019-Dec-15 03:41 001 0 gusting 2 4.4
2019-Dec-15 03:36 015 0 gusting 2 5.0
2019-Dec-15 03:31 030 1 gusting 3 5.0
2019-Dec-15 03:26 002 0 gusting 3 5.0
2019-Dec-15 03:21 351 0 gusting 2 5.0
2019-Dec-15 03:16 012 1 gusting 2 5.0
2019-Dec-15 03:11 340 1 gusting 2 5.0
2019-Dec-15 03:06 325 0 gusting 2 5.0
2019-Dec-15 03:01 348 0 gusting 3 5.0
2019-Dec-15 02:56 016 0 gusting 3 5.0
2019-Dec-15 02:51 025 0 gusting 3 5.0
2019-Dec-15 02:46 009 1 gusting 3 5.6
2019-Dec-15 02:41 349 0 gusting 3 5.0
2019-Dec-15 02:36 001 0 gusting 4 5.0
2019-Dec-15 02:31 021 2 gusting 5 5.0
2019-Dec-15 02:26 022 2 gusting 6 5.0
2019-Dec-15 02:21 021 1 gusting 6 5.6
2019-Dec-15 02:16 017 3 gusting 6 5.6
2019-Dec-15 02:11 020 2 gusting 6 5.0
2019-Dec-15 02:06 024 5 gusting 6 5.0
2019-Dec-15 02:01 028 1 gusting 4 5.0
2019-Dec-15 01:56 013 2 gusting 3 5.0
2019-Dec-15 01:51 348 0 gusting 2 5.0
2019-Dec-15 01:46 002 0 gusting 3 5.0
2019-Dec-15 01:41 008 0 gusting 3 5.0
2019-Dec-15 01:36 011 1 gusting 3 5.0
2019-Dec-15 01:31 013 1 gusting 4 5.0
2019-Dec-15 01:26 006 0 gusting 4 5.0
2019-Dec-15 01:21 020 2 gusting 4 5.0
2019-Dec-15 01:16 027 2 gusting 4 5.0
2019-Dec-15 01:11 034 5.0
2019-Dec-15 01:06 037 2 gusting 4 5.0
2019-Dec-15 01:01 023 2 gusting 4 5.0
2019-Dec-15 00:56 017 2 gusting 3 4.4
2019-Dec-15 00:51 018 2 gusting 3 5.0
2019-Dec-15 00:46 012 2 gusting 3 5.0
2019-Dec-15 00:41 021 5.0
2019-Dec-15 00:36 021 0 gusting 4 5.0
2019-Dec-15 00:31 016 2 gusting 4 5.0
2019-Dec-15 00:26 025 3 gusting 4 5.0
2019-Dec-15 00:21 020 1 gusting 2 5.0
2019-Dec-15 00:16 014 0 gusting 3 5.6
2019-Dec-15 00:11 005 1 gusting 3 5.0
2019-Dec-15 00:06 003 1 gusting 3 5.6
2019-Dec-15 00:01 015 1 gusting 4 5.6
2019-Dec-14 23:56 016 0 gusting 4 5.6
2019-Dec-14 23:51 007 1 gusting 3 5.6
2019-Dec-14 23:46 358 1 gusting 4 5.6
2019-Dec-14 23:41 011 2 gusting 4 5.6
2019-Dec-14 23:36 007 2 gusting 5 5.6
2019-Dec-14 23:31 003 0 gusting 5 5.6
2019-Dec-14 23:26 006 2 gusting 5 5.6
2019-Dec-14 23:21 015 1 gusting 4 5.6
2019-Dec-14 23:16 030 1 gusting 3 6.1
2019-Dec-14 23:11 059 0 gusting 3 6.1
2019-Dec-14 23:06 060 0 gusting 2 6.1
2019-Dec-14 23:01 016 0 gusting 2 6.1
2019-Dec-14 22:56 020 0 gusting 2 6.1
2019-Dec-14 22:51 017 0 gusting 2 6.7
2019-Dec-14 22:46 002 1 gusting 2 6.7
2019-Dec-14 22:41 350 1 gusting 3 6.1
2019-Dec-14 22:36 005 2 gusting 3 6.1
2019-Dec-14 22:31 015 1 gusting 4 6.1
2019-Dec-14 22:26 011 0 gusting 4 6.1
2019-Dec-14 22:21 016 1 gusting 3 6.1
2019-Dec-14 22:16 029 1 gusting 4 6.1
2019-Dec-14 22:11 015 1 gusting 5 6.1
2019-Dec-14 22:06 008 1 gusting 5 6.7
2019-Dec-14 22:01 002 2 gusting 4 6.7
2019-Dec-14 21:56 358 1 gusting 3 6.7
2019-Dec-14 21:51 005 1 gusting 3 6.7
2019-Dec-14 21:46 002 0 gusting 3 6.7
2019-Dec-14 21:41 004 0 gusting 2 6.7
2019-Dec-14 21:36 023 1 gusting 2 6.7
2019-Dec-14 21:31 031 0 gusting 3 6.7
2019-Dec-14 21:26 020 0 gusting 3 6.7
2019-Dec-14 21:21 016 2 gusting 3 6.7
2019-Dec-14 21:01 025 1 gusting 4 6.7
2019-Dec-14 20:56 006 1 gusting 3 7.2
2019-Dec-14 20:51 353 1 gusting 3 7.2
2019-Dec-14 20:46 001 0 gusting 3 7.2
2019-Dec-14 20:41 338 0 gusting 3 7.2
2019-Dec-14 20:36 343 1 gusting 3 7.2
2019-Dec-14 20:31 008 0 gusting 4 7.2
2019-Dec-14 20:26 014 0 gusting 5 7.2
2019-Dec-14 20:21 015 2 gusting 5 7.2
2019-Dec-14 20:16 017 2 gusting 5 7.2
2019-Dec-14 20:11 008 1 gusting 4 7.2
2019-Dec-14 20:06 010 2 gusting 4 7.8
2019-Dec-14 20:01 011 7.8
2019-Dec-14 19:56 351 1 gusting 7 7.8
2019-Dec-14 19:51 301 1 gusting 7 7.8
2019-Dec-14 19:46 276 0 gusting 4 7.8
2019-Dec-14 19:41 331 1 gusting 3 7.2
2019-Dec-14 19:36 356 0 gusting 2 7.2
2019-Dec-14 19:31 302 7.2
2019-Dec-14 19:26 228 7.2
2019-Dec-14 19:21 142 0 gusting 2 7.8
2019-Dec-14 19:16 097 1 gusting 2 7.8
2019-Dec-14 19:11 289 0 gusting 1 7.8
2019-Dec-14 19:06 332 0 gusting 5 7.8
2019-Dec-14 19:01 008 0 gusting 5 7.8
2019-Dec-14 18:56 023 0 gusting 3 7.8
2019-Dec-14 18:51 026 2 gusting 3 7.8
2019-Dec-14 18:46 015 2 gusting 3 7.8
2019-Dec-14 18:41 322 7.8
2019-Dec-14 18:36 297 7.8
2019-Dec-14 18:31 349 7.8
2019-Dec-14 18:26 320 8.3
2019-Dec-14 18:21 339 8.3
2019-Dec-14 18:16 021 8.3
2019-Dec-14 18:11 046 4 gusting 5 8.3
2019-Dec-14 18:06 041 8.3
2019-Dec-14 18:01 314 0 gusting 4 8.9
2019-Dec-14 17:56 300 0 gusting 4 8.3
2019-Dec-14 17:51 348 1 gusting 3 8.9
2019-Dec-14 17:46 353 0 gusting 3 8.9
2019-Dec-14 17:41 326 0 gusting 4 8.9
2019-Dec-14 17:36 347 8.9
2019-Dec-14 17:31 006 1 gusting 5 8.9
2019-Dec-14 17:26 358 0 gusting 3 8.9
2019-Dec-14 17:21 358 8.9
2019-Dec-14 17:16 345 1 gusting 5 9.4
2019-Dec-14 17:11 036 2 gusting 5 9.4
2019-Dec-14 17:06 045 9.4
2019-Dec-14 17:01 322 9.4
2019-Dec-14 16:56 294 1 gusting 2 9.4
2019-Dec-14 16:51 332 0 gusting 2 9.4
2019-Dec-14 16:46 012 2 gusting 5 10.0
2019-Dec-14 16:41 318 3 gusting 5 10.0
2019-Dec-14 16:36 287 0 gusting 5 10.0
2019-Dec-14 16:31 008 2 gusting 7 10.0
2019-Dec-14 16:26 029 4 gusting 7 10.0
2019-Dec-14 16:21 039 1 gusting 4 10.6
2019-Dec-14 16:16 148 2 gusting 4 10.6
2019-Dec-14 16:11 194 1 gusting 4 10.6
2019-Dec-14 16:06 240 10.6
2019-Dec-14 16:01 283 0 gusting 3 10.6
2019-Dec-14 15:56 308 2 gusting 3 10.6
2019-Dec-14 15:51 305 1 gusting 2 10.6
2019-Dec-14 15:46 004 10.6
2019-Dec-14 15:41 022 2 gusting 4 11.1
2019-Dec-14 15:36 005 11.1
2019-Dec-14 15:31 335 11.1
2019-Dec-14 15:26 024 11.7
2019-Dec-14 15:21 233 0 gusting 5 11.7
2019-Dec-14 15:16 315 0 gusting 5 11.7
2019-Dec-14 15:11 265 0 gusting 5 11.7
2019-Dec-14 15:06 229 0 gusting 5 12.2
2019-Dec-14 15:01 305 0 gusting 6 12.2
2019-Dec-14 14:56 332 4 gusting 6 12.2
2019-Dec-14 14:51 345 2 gusting 5 12.8
2019-Dec-14 14:46 011 3 gusting 5 13.3
2019-Dec-14 14:41 038 1 gusting 5 13.9
2019-Dec-14 14:36 006 2 gusting 2 14.4
2019-Dec-14 14:31 286 0 gusting 4 14.4
2019-Dec-14 14:26 307 14.4
2019-Dec-14 14:21 269 14.4
2019-Dec-14 14:16 209 14.4
2019-Dec-14 14:11 200 1 gusting 5 15.0
2019-Dec-14 14:06 140 1 gusting 5 15.6
2019-Dec-14 14:01 044 1 gusting 5 15.0
2019-Dec-14 13:56 204 14.4
2019-Dec-14 13:51 218 3 gusting 13 13.3
2019-Dec-14 13:46 226 3 gusting 13 13.3
2019-Dec-14 13:41 207 2 gusting 7 13.3
2019-Dec-14 13:36 206 5 gusting 9 12.8
2019-Dec-14 13:31 154 3 gusting 13 12.2
2019-Dec-14 13:26 136 7 gusting 13 12.2
2019-Dec-14 13:21 150 6 gusting 8 12.2
2019-Dec-14 13:16 176 4 gusting 7 12.2
2019-Dec-14 13:11 333 3 gusting 7 12.2
2019-Dec-14 13:06 329 2 gusting 5 12.8
2019-Dec-14 13:01 163 2 gusting 6 12.8
2019-Dec-14 12:56 193 2 gusting 7 12.2
2019-Dec-14 12:51 213 2 gusting 7 12.2
2019-Dec-14 12:46 199 2 gusting 6 12.2
2019-Dec-14 12:41 201 4 gusting 6 12.2
2019-Dec-14 12:36 228 3 gusting 7 11.7
2019-Dec-14 12:31 246 5 gusting 7 11.7
2019-Dec-14 12:26 207 5 gusting 7 12.2
2019-Dec-14 12:21 161 3 gusting 6 12.8
2019-Dec-14 12:16 151 3 gusting 5 13.3
2019-Dec-14 12:11 179 0 gusting 2 13.9
2019-Dec-14 12:06 221 0 gusting 2 14.4
2019-Dec-14 12:01 167 1 gusting 2 14.4
2019-Dec-14 11:56 205 13.3
2019-Dec-14 11:51 221 13.3
2019-Dec-14 11:46 196 13.3
2019-Dec-14 11:41 196 13.3
2019-Dec-14 11:36 167 2 gusting 3 13.3
2019-Dec-14 11:31 143 2 gusting 3 13.3
2019-Dec-14 11:26 147 2 gusting 2 13.9
2019-Dec-14 11:21 002 13.9
2019-Dec-14 11:16 105 2 gusting 3 13.3
2019-Dec-14 11:11 190 12.2
2019-Dec-14 11:06 221 0 gusting 2 12.2
2019-Dec-14 11:01 215 0 gusting 2 12.2
2019-Dec-14 10:56 214 2 gusting 2 12.2
2019-Dec-14 10:51 208 12.2
2019-Dec-14 10:46 187 11.1
2019-Dec-14 10:41 184 3 gusting 6 10.6
2019-Dec-14 10:36 183 1 gusting 6 11.1
2019-Dec-14 10:31 207 2 gusting 5 10.6
2019-Dec-14 10:26 218 2 gusting 5 11.1
2019-Dec-14 10:21 217 0 gusting 3 11.1
2019-Dec-14 10:16 257 10.6
2019-Dec-14 10:11 278 10.6
2019-Dec-14 10:06 303 10.6
2019-Dec-14 10:01 155 10.6
2019-Dec-14 09:56 179 10.0
2019-Dec-14 09:51 186 9.4
2019-Dec-14 09:46 165 2 gusting 6 9.4
2019-Dec-14 09:41 162 0 gusting 6 9.4
2019-Dec-14 09:36 165 2 gusting 6 9.4
2019-Dec-14 09:31 187 2 gusting 6 10.6
2019-Dec-14 09:26 220 4 gusting 6 11.1
2019-Dec-14 09:21 145 10.6
2019-Dec-14 09:01 231 9.4
2019-Dec-14 08:51 300 0 gusting 4 8.3
2019-Dec-14 08:46 291 1 gusting 4 7.8
2019-Dec-14 08:41 196 0 gusting 5 7.8
2019-Dec-14 08:36 004 7.2
2019-Dec-14 08:31 011 2 gusting 10 6.7
2019-Dec-14 08:26 023 5 gusting 10 7.2
2019-Dec-14 08:21 040 2 gusting 5 7.8
2019-Dec-14 08:16 031 2 gusting 2 7.8
2019-Dec-14 08:11 350 1 gusting 2 7.2
2019-Dec-14 08:06 336 0 gusting 2 7.2
2019-Dec-14 08:01 013 6.1
2019-Dec-14 07:56 028 2 gusting 2 5.6
2019-Dec-14 07:51 314 5.0
2019-Dec-14 07:46 008 3.9
2019-Dec-14 07:41 038 3.9
2019-Dec-14 07:36 145 3.9
2019-Dec-14 07:31 151 3.9
2019-Dec-14 07:26 314 3.9
2019-Dec-14 07:21 344 2 gusting 3 3.9
2019-Dec-14 07:16 353 0 gusting 3 3.9
2019-Dec-14 07:11 321 0 gusting 2 3.9
2019-Dec-14 07:06 322 3.9
2019-Dec-14 07:01 338 3.9
2019-Dec-14 06:56 317 3.9
2019-Dec-14 06:51 292 0 gusting 2 3.9
2019-Dec-14 06:46 325 1 gusting 2 3.9
2019-Dec-14 06:41 014 3.9
2019-Dec-14 06:36 009 2 gusting 2 3.9
2019-Dec-14 06:31 010 0 gusting 2 3.9
2019-Dec-14 06:26 309 3.9
2019-Dec-14 06:21 321 3.9
2019-Dec-14 06:16 012 3.3
2019-Dec-14 06:11 353 0 gusting 2 3.3
2019-Dec-14 06:06 341 3.3
2019-Dec-14 06:01 007 1 gusting 3 3.9
2019-Dec-14 05:56 018 1 gusting 2 3.9
2019-Dec-14 05:51 313 3.3
2019-Dec-14 05:46 031 3.3
2019-Dec-14 05:41 089 3.3
2019-Dec-14 05:36 198 3.3
2019-Dec-14 05:31 323 0 gusting 1 3.3
2019-Dec-14 05:26 359 3.9
2019-Dec-14 05:21 354 0 gusting 2 3.9
2019-Dec-14 05:16 348 3.9
2019-Dec-14 05:11 307 3.3
2019-Dec-14 05:06 258 3.3
2019-Dec-14 05:01 264 3.3
2019-Dec-14 04:56 328 3.3
2019-Dec-14 04:51 234 3.3
2019-Dec-14 04:46 200 3.3
2019-Dec-14 04:41 184 0 gusting 5 3.3
2019-Dec-14 04:36 159 3 gusting 5 3.3
2019-Dec-14 04:31 152 2 gusting 4 3.9
2019-Dec-14 04:26 171 1 gusting 3 3.9
2019-Dec-14 04:21 147 0 gusting 1 3.9
2019-Dec-14 04:16 115 3.9
2019-Dec-14 04:11 278 3.9
2019-Dec-14 04:06 269 3.9
2019-Dec-14 04:01 147 3.9
2019-Dec-14 03:56 132 3.9
2019-Dec-14 03:51 107 2 gusting 4 3.9
2019-Dec-14 03:46 060 0 gusting 4 3.9
2019-Dec-14 03:41 173 3.9
2019-Dec-14 03:36 164 0 gusting 3 3.9
2019-Dec-14 03:31 151 2 gusting 2 3.9
2019-Dec-14 03:26 145 0 gusting 2 3.9
2019-Dec-14 03:21 135 3.9
2019-Dec-14 03:16 125 3.9
2019-Dec-14 03:11 314 3.9
2019-Dec-14 03:06 319 4.4
2019-Dec-14 03:01 336 4.4
2019-Dec-14 02:56 225 4.4
2019-Dec-14 02:51 246 4.4
2019-Dec-14 02:46 276 1 gusting 3 4.4
2019-Dec-14 02:41 002 4.4
2019-Dec-14 02:36 331 1 gusting 4 4.4
2019-Dec-14 02:31 278 4.4
2019-Dec-14 02:26 302 0 gusting 3 4.4
2019-Dec-14 02:21 033 3.9
2019-Dec-14 02:16 087 2 gusting 3 3.9
2019-Dec-14 02:11 117 3.9
2019-Dec-14 02:06 224 4.4
2019-Dec-14 02:01 256 4.4
2019-Dec-14 01:56 183 2 gusting 4 3.9
2019-Dec-14 01:51 142 3.9
2019-Dec-14 01:46 159 2 gusting 5 4.4
2019-Dec-14 01:41 161 2 gusting 5 4.4
2019-Dec-14 01:36 106 2 gusting 4 4.4
2019-Dec-14 01:31 281 1 gusting 2 4.4
2019-Dec-14 01:26 267 4.4
2019-Dec-14 01:21 297 4.4
2019-Dec-14 01:16 014 4.4
2019-Dec-14 01:11 080 0 gusting 2 4.4
2019-Dec-14 01:06 076 0 gusting 2 4.4
2019-Dec-14 01:01 060 0 gusting 2 4.4
2019-Dec-14 00:56 019 0 gusting 2 4.4
2019-Dec-14 00:51 359 4.4
2019-Dec-14 00:46 016 4.4
2019-Dec-14 00:41 033 4.4
2019-Dec-14 00:36 026 1 gusting 4 4.4
2019-Dec-14 00:31 355 0 gusting 3 5.0
2019-Dec-14 00:26 312 5.0
2019-Dec-14 00:21 357 0 gusting 3 4.4
2019-Dec-14 00:16 013 1 gusting 2 3.9
2019-Dec-14 00:11 017 3.9
2019-Dec-14 00:06 050 2 gusting 2 3.9
2019-Dec-14 00:01 176 0 gusting 2 3.9
2019-Dec-13 23:56 197 0 gusting 3 3.9
2019-Dec-13 23:51 195 1 gusting 3 3.9
2019-Dec-13 23:46 005 3.9
2019-Dec-13 23:41 323 3.9
2019-Dec-13 23:36 308 3.9
2019-Dec-13 23:31 3.9
2019-Dec-13 23:26 290 3.3
2019-Dec-13 23:21 329 3.3
2019-Dec-13 23:16 205 3.3
2019-Dec-13 23:11 158 0 gusting 2 3.3
2019-Dec-13 23:06 135 2.8
2019-Dec-13 23:01 090 2.8
2019-Dec-13 22:56 053 3.3
2019-Dec-13 22:51 039 0 gusting 1 3.3
2019-Dec-13 22:46 134 2.8
2019-Dec-13 22:41 150 2.8
2019-Dec-13 22:36 160 0 gusting 2 2.8
2019-Dec-13 22:31 176 0 gusting 2 3.3
2019-Dec-13 22:26 195 0 gusting 2 3.3
2019-Dec-13 22:21 197 2.8
2019-Dec-13 22:16 072 0 gusting 1 2.8
2019-Dec-13 22:11 321 3.3
2019-Dec-13 22:06 051 2.8
2019-Dec-13 22:01 078 2.8
2019-Dec-13 21:56 159 2.8
2019-Dec-13 21:51 143 3.3
2019-Dec-13 21:46 130 3.3
2019-Dec-13 21:41 077 3.3
2019-Dec-13 21:36 022 3.3
2019-Dec-13 21:31 348 1 gusting 2 3.9
2019-Dec-13 21:26 015 3.3
2019-Dec-13 21:21 014 3.3
2019-Dec-13 21:16 046 3.3
2019-Dec-13 21:11 045 3.3
2019-Dec-13 21:06 040 0 gusting 1 3.3
2019-Dec-13 21:01 028 0 gusting 1 3.3
2019-Dec-13 20:56 004 3.3
2019-Dec-13 20:51 013 3.3
2019-Dec-13 20:46 025 0 gusting 2 3.3
2019-Dec-13 20:41 342 1 gusting 3 3.3
2019-Dec-13 20:36 344 3.3
2019-Dec-13 20:31 356 3.3
2019-Dec-13 20:26 015 3.3
2019-Dec-13 20:21 023 1 gusting 3 3.3
2019-Dec-13 20:16 022 3.3
2019-Dec-13 20:11 346 3.3
2019-Dec-13 20:06 003 3.3
2019-Dec-13 20:01 021 2 gusting 3 3.3
2019-Dec-13 19:56 028 0 gusting 2 2.8
2019-Dec-13 19:51 052 0 gusting 2 2.8
2019-Dec-13 19:46 169 2.8
2019-Dec-13 19:41 013 2.8
2019-Dec-13 19:36 017 2.8
2019-Dec-13 19:31 011 2.8
2019-Dec-13 19:26 055 2.8
2019-Dec-13 19:21 072 2.8
2019-Dec-13 19:16 351 2.8
2019-Dec-13 19:11 358 2.8
2019-Dec-13 19:06 335 3.3
2019-Dec-13 19:01 326 3.3
2019-Dec-13 18:56 032 3.3
2019-Dec-13 18:51 021 1 gusting 2 3.3
2019-Dec-13 18:46 356 0 gusting 2 3.3
2019-Dec-13 18:41 014 0 gusting 3 2.8
2019-Dec-13 18:36 042 0 gusting 3 2.8
2019-Dec-13 18:31 070 1 gusting 2 2.8
2019-Dec-13 18:26 042 2.8
2019-Dec-13 18:21 067 2.8
2019-Dec-13 18:16 293 3.3
2019-Dec-13 18:11 257 3.3
2019-Dec-13 18:06 236 1 gusting 3 3.3
2019-Dec-13 18:01 183 1 gusting 4 3.3
2019-Dec-13 17:56 172 3.3
2019-Dec-13 17:51 152 1 gusting 3 3.3
2019-Dec-13 17:46 160 3.3
2019-Dec-13 17:41 202 1 gusting 2 3.3
2019-Dec-13 17:36 234 3.3
2019-Dec-13 17:31 206 3.3
2019-Dec-13 17:26 144 3.3
2019-Dec-13 17:21 137 2 gusting 4 3.3
2019-Dec-13 17:16 140 2 gusting 4 3.3
2019-Dec-13 17:11 115 2 gusting 2 3.3
2019-Dec-13 17:06 110 3.3
2019-Dec-13 17:01 154 3.3
2019-Dec-13 16:56 155 0 gusting 6 3.3
2019-Dec-13 16:51 176 3 gusting 6 3.3
2019-Dec-13 16:46 200 2 gusting 4 3.3
2019-Dec-13 16:41 160 1 gusting 5 2.8
2019-Dec-13 16:36 166 1 gusting 6 2.8
2019-Dec-13 16:31 157 4 gusting 6 3.3
2019-Dec-13 16:26 182 5 gusting 9 3.3
2019-Dec-13 16:21 230 5 gusting 9 3.3
2019-Dec-13 16:16 212 2 gusting 8 3.3
2019-Dec-13 16:11 201 4 gusting 8 3.3
2019-Dec-13 16:06 234 5 gusting 7 3.3
2019-Dec-13 16:01 217 1 gusting 7 3.3